NUSAT-1 (FRESCO) (41557 NORAD) Tracking and Keplerian Element Data

This shows tracking and keplerian element data for the satellite.

Feedback or suggestion? Click here.




ElementValue
Catalog41557
NameNUSAT-1 (FRESCO)
Epoch Orbit14178
Epoch Day349.19641727
Epoch Year2018
RAAN72.7616
Inclination97.4293
Eccentricity0.0012828
Argument of Perigee228.5797
Mean Anonmoly131.4341
Mean Motion15.26726373
Decay Rate1.078E-05
L11 41557U 16033B 18349.19641727 .00001078 00000-0 43774-4 0 9992
L22 41557 97.4293 72.7616 0012828 228.5797 131.4341 15.26726373141788

Live tracking and technical data element details for NUSAT-1 (FRESCO) (NORAD 41557). NUSAT-1 (FRESCO) can be tracked NOW for your location showing map with azimuth and elevation plus other details from your city location.

Track the satellite on the map from your city or location and see movement details for azimuth, elevation, latitude, longitude, range, height, and movement on the map or in text.







IsCatalogInMostPopularTable: catalog: 41557, numindb: 147
Update: records affected: 1



GetName: 41557 NUSAT-1 (FRESCO)

Hit Count: updated at: Sat, 15 Dec 2018 14:42:51 GMT